Preview of NWS' New Version of Forecast
This preview is not operational and should not be used for support decisions.

Regional Weather Roundup (RWR)

Issued by Gray - Portland, ME (GYX)

                            
000
ASUS41 KGYX 262005
RWRGYX
WEATHER ROUNDUP FOR MAINE AND NEW HAMPSHIRE
NATIONAL WEATHER SERVICE GRAY ME
400 PM EDT TUE MAR 26 2019

MEZ002-005-006-010-012-015-018-020-021-024-026-027-029-262100-
MAINE
  
CITY           SKY/WX    TMP DP  RH WIND       PRES   REMARKS
PORTLAND       FAIR      40   4  22 NW9       30.22F                  
SANFORD        FAIR      39   5  24 W14       30.22F                  
BAR HARBOR     FAIR      34   0  23 W10G20    30.19S                  
WISCASSET      FAIR      37   1  22 VRB7      30.22F                  
ROCKLAND       FAIR      35   2  24 NW9       30.20S                  
FRYEBURG       FAIR      37   2  22 W12       30.21S                  
LEWISTONAUBURN FAIR      35   3  26 NW12G20   30.21F                  
AUGUSTA        FAIR      35   2  24 W14       30.20F                  
WATERVILLE     FAIR      36   4  26 NW12      30.16F                  
BANGOR         FAIR      35  -1  21 NW8       30.18F                  
GREENVILLE       N/A     29  -1  27 NW13G23   30.09S WCI  19          
MILLINOCKET    FAIR      31   2  29 W13G24    30.15S                  
HOULTON        FAIR      30   2  30 W12G29    30.09F                  
PRESQUE ISLE   FAIR      30   2  30 W18       30.08F WCI  18          
FRENCHVILLE    FAIR      26  -1  31 W22G30    30.04S WCI  12          
CARIBOU        FAIR      28   0  29 W8G20     30.06F                  
$$

NHZ002-005-008-009-011-012-014-262100-
NEW HAMPSHIRE
  
CITY           SKY/WX    TMP DP  RH WIND       PRES   REMARKS
PORTSMOUTH     SUNNY     41   2  19 NW12G18   30.21F                  
ROCHESTER      FAIR      40   5  23 NW13      30.22S                  
NASHUA         FAIR      42   0  17 NW13G18   30.24S                  
MANCHESTER     FAIR      42  -2  15 NW12G25   30.22F                  
CONCORD        FAIR      39   4  23 NW13G22   30.24S                  
LACONIA        FAIR      36   2  23 NW14      30.23F                  
PLYMOUTH       FAIR      36   3  25 W12G20    30.24F                  
BERLIN         FAIR      32   2  27 VRB7      30.19S                  
WHITEFIELD     FAIR      34   1  24 W14G20    30.21F                  
JAFFREY        FAIR      38   4  24 NW9       30.21R                  
KEENE          FAIR      38  -2  18 NW13G23   30.25S                  
LEBANON        SUNNY     37   3  23 N8G28     30.25F                  
MT WASHINGTON  SUNNY      3  -6  66 W51         N/A  WCI -27          
$$

VTZ005-007-008-262100-
VERMONT
  
CITY           SKY/WX    TMP DP  RH WIND       PRES   REMARKS
ST JOHNSBURY     N/A     33   7  33 MISG      30.24S                  
MONTPELIER     FAIR      29   3  33 NW10      30.29F WCI  20          
BURLINGTON     FAIR      34   4  28 NW12      30.31F                  
$$

MAZ007-012-024-CTZ003-RIZ002-NYZ038-NYZ072-262100-
SOUTHERN NEW ENGLAND AND NY
  
CITY           SKY/WX    TMP DP  RH WIND       PRES   REMARKS
BOSTON         FAIR      41  13  31 E8        30.23F                  
WORCESTER      FAIR      40   3  21 NW13G20   30.19F                  
NANTUCKET      FAIR      40  17  39 N18G29    30.22R                  
PROVIDENCE     FAIR      46   4  17 N15       30.21F                  
HARTFORD       FAIR      46   0  14 N14G23    30.23F                  
ALBANY         FAIR      45   3  17 NW16      30.29F                  
NEW YORK CITY  FAIR      47   3  16 N15       30.25F                  
$$

ANZ081-ANZ082-ANZ150-NHZ014-MEZ023>029-262100-
COASTAL MARINE OBSERVATIONS
  
STATION/POSITION TIME  TEMP    WIND        PRES    WAVE
                       AIR SEA DIR/SP/G            HT/PER
                 (UTC) (F)     (DEG/KT/KT) (MB)    (FT/S)
MOUNT DESERT ROC 1900   31     300/ 11/ 13 1022.5F
MATINICUS ROCK   1900   34     320/  9/ 10 1022.6F
ISLE OF SHOALS   1900   33     110/  8/  9 1023.6F
CASHES LEDGE BUO 1950   36 39              1023.1F   3/ 4
$$

.............KEY..............
   WCI - WIND CHILL
   TC  - TEMPERATURE IN CELSIUS
   VSB - VISIBILITY IN MILES
   HX  - HEAT INDEX
   FAIR- INDICATES FEW OR NO CLOUDS BELOW 12,000 FT, WITH NO 
         SIGNIFICANT WEATHER AND/OR OBSTRUCTIONS TO VISIBILITY.